Location: Unspecified
(48.8656°N, 0.0000°E)
Time: 08:44:07
(UTC+00:00)

Transit 2A Rocket - Pass Details

Date: 20 June 2019
Orbit: 588 x 915 km, 66.7° (Epoch: 23 July)

Event Time Altitude Azimuth Distance (km) Brightness Sun altitude
Rises 10:11:03 0° 192° (SSW) 3,532 8.6 56.5°
Reaches altitude 10° 10:13:40 10° 187° (S) 2,598 8.1 56.9°
Maximum altitude 10:19:26 46° 116° (ESE) 1,199 8.0 57.6°
Drops below altitude 10° 10:25:04 10° 45° (NE) 2,536 7.8 58.3°
Sets 10:27:35 0° 40° (NE) 3,441 8.3 58.5°
